Location: Pandora
(40.9481°N, 83.9611°W)
Time: 09:38:32
(UTC-04:00)

Envisat - Pass Details

Date: 26 September 2021
Orbit: 764 x 766 km, 98.2° (Epoch: 23 October)

Event Time Altitude Azimuth Distance (km) Brightness Sun altitude
Rises 06:01:46 0° 23° (NNE) 3,238 6.8 -16.9°
Reaches altitude 10° 06:04:19 10° 33° (NNE) 2,307 6.1 -16.4°
Maximum altitude 06:08:51 32° 96° (E) 1,295 4.9 -15.6°
Drops below altitude 10° 06:13:20 10° 159° (SSE) 2,292 5.6 -14.8°
Sets 06:15:51 0° 169° (S) 3,213 6.2 -14.3°
